HULIANWANG DIGUI-76

导读

HULIANWANG DIGUI-76是中国于2025年8月25日发射的低轨卫星,属于“低轨互联网星座”体系,主要服务于全球卫星互联网建设,将为全球用户提供高速、稳定的宽带网络接入服务,补齐地面网络覆盖盲区,推动空天地一体化网络建设,助力全球数字互联互通,拓展卫星通信应用场景。

Basic Information
目录编号:
65308
目录名称:
HULIANWANG DIGUI-76
国际标识:
2025-187D
轨道中心:
EARTH
卫星名称:
HULIANWANG DIGUI-76
卫星全名:
HULIANWANG DIGUI-76
卫星状态:
在轨 (已飞行383 天)
发射日期:
2025-08-25 UTC
国别 :
中国 (CN)
星等 :
--
This satellite is enrolled in the Space Conjunction Data Service (SCDS) and the current flight risk assessment level is: No High Risk
Orbit Information
数据来源 国际轨道数据 AOE轨道数据
星历时间 2026-09-12T06:04:25+0800
6小时前
查看轨道信息
2026-09-11T00:00:00+0800
1天前
查看轨道信息
半长轴 7527.443km 7527.446km
偏心率 0.0000664 0.000069
轨道倾角 50.000° 49.998°
近地点辐角 317.084° 325.394°
升交点赤经 254.917° 259.413°
平近点角 42.998° 154.313°
近地点 1148.806km 1148.789km
远地点 1149.806km 1149.829km
周期 108.326分钟 108.326分钟
每日圈数 13.293263 13.293254
Detailed Information
使用方式:
暂无
2D Orbit Map
3D Orbit Map
Orbit Altitude Analysis Chart
Orbit Inclination Analysis Chart
Orbit Comprehensive Analysis Chart
View Comprehensive Chart
Miss Distance Evolution Trend with All Objects
Collision Probability Evolution Trend with All Objects